Overview Statistics Trail Chart Weather Telemetry Raw packets
 

This is the latest recevied weather packets stored in our database for station/object LA4M-10. If no packets are shown the sender has not sent any weather packets the latest 10 day(s).

<< 29 30 31 32 33 >>
Time Temp. Humidity Pressure Rain* Wind** Luminosity Snow
1787814427 17.22° C 100% 958.3 hPa - - - -
1787813527 16.11° C 100% 958.4 hPa - - - -
1787812627 17.78° C 94% 958.3 hPa - - - -
1787811727 17.78° C 89% 958.3 hPa - - - -
1787810827 17.22° C 96% 958.4 hPa - - - -
1787809927 17.78° C 93% 958.4 hPa - - - -
1787809027 17.22° C 98% 958.5 hPa - - - -
1787808127 16.67° C 98% 958.5 hPa - - - -
1787807226 16.11° C 100% 958.7 hPa - - - -
1787806326 16.11° C 100% 958.8 hPa - - - -
1787805426 15.56° C 100% 958.8 hPa - - - -
1787804526 15° C 100% 958.9 hPa - - - -
1787803626 15° C 100% 958.9 hPa - - - -
1787802726 15° C 100% 958.9 hPa - - - -
1787801826 15.56° C 100% 958.9 hPa - - - -
1787800926 15.56° C 100% 959 hPa - - - -
1787800026 15.56° C 100% 959 hPa - - - -
1787799126 15.56° C 100% 959 hPa - - - -
1787798225 15.56° C 100% 958.9 hPa - - - -
1787797325 15.56° C 100% 959 hPa - - - -
1787796425 15.56° C 100% 959.1 hPa - - - -
1787795525 15.56° C 99% 959.1 hPa - - - -
1787794625 15.56° C 98% 959.2 hPa - - - -
1787793725 15.56° C 96% 959.3 hPa - - - -
1787792825 15.56° C 95% 959.3 hPa - - - -

* Rain since midnight (hover to see other rain measurements)
** Current wind speed in m/s (hover to see current wind gust speed)